Regional Weather Roundup
Issued by NWS

Home | Current Version | Previous Version | Graphics & Text | Print | Product List | Glossary On
Versions: 1 2 3 4 5 6 7 8 9 10 11 12 13 14 15 16 17 18 19 20 21 22 23 24 25 26 27 28 29 30 31 32 33 34 35 36 37 38 39 40 41 42 43 44 45 46 47 48 49 50
000
ASUS43 KDMX 260406
RWRIA

WEATHER ROUNDUP FOR IOWA
NATIONAL WEATHER SERVICE DES MOINES IA
1100 PM CDT TUE APR 25 2017

NOTE: "FAIR" INDICATES FEW OR NO CLOUDS BELOW 12,000 FEET WITH NO
SIGNIFICANT WEATHER AND/OR OBSTRUCTIONS TO VISIBILITY.

* - THESE STATIONS ARE NOT NWS STATIONS...THUS NOT UNDER NWS
QUALITY CONTROL.  THEY ALSO DO NOT REPORT WEATHER SUCH
AS PRECIPITATION OR FOG.

IAZ001>003-012>014-020>022-031>034-043>046-260500-
   NORTHWEST IOWA

CITY           SKY/WX    TMP DP  RH WIND       PRES   REMARKS
CARROLL *      CLOUDY    45  45 100 NW16      29.55S
CHEROKEE *     DRIZZLE   40  40 100 NW9       29.59S WCI  34
DENISON *      LGT RAIN  41  41 100 N13G22    29.60S
LE MARS *      CLOUDY    39  37  93 NW12G23   29.64S WCI  32
ORANGE CITY *  LGT RAIN  37  37 100 N15G21    29.61S WCI  28
SHELDON *      LGT RAIN  39  37  93 N20       29.58F WCI  30
SIOUX CITY     CLOUDY    39  38  96 N17       29.64R WCI  30
SPENCER        LGT RAIN  41  40  96 NW18      29.56F FOG
STORM LAKE *   PTCLDY    41  39  93 N16G22    29.56F FOG
$$

IAZ055>058-069>071-079>083-090>094-260500-
   SOUTHWEST IOWA

CITY           SKY/WX    TMP DP  RH WIND       PRES   REMARKS
ATLANTIC *     MOCLDY    45  43  93 N13G20    29.56S
AUDUBON *      RAIN      45  41  87 NW9       29.55F
CLARINDA *     CLOUDY    48  43  81 N15G22    29.59R
COUNCIL BLFS * LGT RAIN  43  43 100 N16G24    29.59S
CRESTON *      CLOUDY    46  45  93 NW15G23   29.54R
HARLAN  *      CLOUDY    43  43 100 NW17G24   29.61S
LAMONI         LGT RAIN  52  49  89 NW12      29.50R
RED OAK *      CLOUDY    46  43  87 N12       29.58R
SHENANDOAH *   CLOUDY    46  43  87 NW13      29.60R
$$

IAZ047>049-059>061-072>074-084-260500-
   CENTRAL IOWA

CITY           SKY/WX    TMP DP  RH WIND       PRES   REMARKS
AMES           MOCLDY    50  48  93 NW14      29.48R
ANKENY *       CLOUDY    52  48  87 NW12      29.49R
BOONE *        CLOUDY    48  48 100 NW15      29.49S
CHARITON *     CLOUDY    54  48  82 NW13      29.48R
DES MOINES     CLOUDY    51  46  83 NW16G24   29.49R
GRINNELL*      MOCLDY    61  55  81 S5        29.46S
KNOXVILLE *    CLOUDY    55  50  82 W14       29.47R
MARSHALLTOWN   CLOUDY    59  53  80 NW8       29.43S
NEWTON *       CLOUDY    59  52  77 W8        29.45R
PELLA *        CLOUDY    60  53  77 W10       29.47R
PERRY *        CLOUDY    47  44  91 NW16      29.52S
$$

IAZ004>006-015-016-023>025-035-036-260500-
   NORTH CENTRAL IOWA

CITY           SKY/WX    TMP DP  RH WIND       PRES   REMARKS
ALGONA *       DRIZZLE   45  45 100 N12G20    29.52S
CLARION *      CLOUDY    48  48 100 N9        29.49S FOG
ESTHERVILLE    LGT RAIN  41  41 100 NW20      29.54F FOG
FORT DODGE *   CLOUDY    46  39  76 NW9       29.53R
MASON CITY     LGT RAIN  52  50  93 N12       29.48F
FOREST CITY *  RAIN      46  46 100 N7        29.49S
WEBSTER CITY * DRIZZLE   46  46 100 NW14      29.48S
IOWA FALLS *   CLOUDY    56  52  86 NW12      29.47S
$$

IAZ007>011-017>019-026>030-037>042-050>054-066-260500-
   NORTHEAST IOWA

CITY           SKY/WX    TMP DP  RH WIND       PRES   REMARKS
CEDAR RAPIDS   LGT RAIN  61  58  90 NW7       29.44S
CHARLES CITY * CLOUDY    57  55  94 NE13      29.45F
CLINTON *      LGT RAIN  67  53  61 SE14      29.46F
DECORAH *      CLOUDY    59  52  77 NE5       29.46S
DUBUQUE        CLOUDY    68  47  46 S16       29.46F
MONTICELLO *   CLOUDY    66  48  52 W12       29.46R
WATERLOO       CLOUDY    63  51  65 SE7       29.43S
$$

IAZ064-065-067-068-078-260500-
   EAST CENTRAL IOWA

CITY           SKY/WX    TMP DP  RH WIND       PRES   REMARKS
DAVENPORT      CLOUDY    69  50  50 SE15      29.45F
IOWA CITY      CLOUDY    64  56  75 W5        29.45S
MT. PLEASANT * CLOUDY    67  50  54 SE9       29.43S
MUSCATINE *    MOCLDY    72  48  43 S10       29.43S
QUAD CITIES    CLOUDY    69  49  48 SE10      29.44F
$$

IAZ062-063-075>077-085>089-095>099-260500-
   SOUTHEAST IOWA

CITY           SKY/WX    TMP DP  RH WIND       PRES   REMARKS
BURLINGTON     CLOUDY    71  50  47 SE13      29.44R
FAIRFIELD *    CLOUDY    64  52  63 NW3       29.44S
FORT MADISON * CLOUDY    72  52  49 SE10      29.45S
KEOKUK *       CLOUDY    70  52  52 SE8       29.44S
OSKALOOSA *    CLOUDY    63  57  81 CALM      29.45S
CENTERVILLE *  MOCLDY    63  55  77 CALM      29.48R
OTTUMWA        CLOUDY    64  57  78 W5        29.45R
WASHINGTON *   CLOUDY    68  50  52 S5        29.44F
$$

ABBREVIATIONS USED IN REMARKS
   TC - TEMPERATURES IN CELSIUS
  WCI - WIND CHILL INDEX
   HX - HEAT INDEX
  VSB - VISIBILITY
$$




USA.gov is the U.S. government's official web portal to all federal, state and local government web resources and services.